Stations météo

Publicité
Saarbrücken-Ensheim, Allemagne (10708): Température de l'air & dewpoint: 03.04.2020 12:00:00 - 09.04.2020 12:00:00 (CEST)Saarbrücken-Ensheim, Allemagne (10708): Température de l'air 5cm & Température de l'air -5cm: 03.04.2020 12:00:00 - 09.04.2020 12:00:00 (CEST)Saarbrücken-Ensheim, Allemagne (10708): Température de l'air -20cm & Température de l'air -100cm: 03.04.2020 12:00:00 - 09.04.2020 12:00:00 (CEST)Saarbrücken-Ensheim, Allemagne (10708): Vitesse du vent & gusts: 03.04.2020 12:00:00 - 09.04.2020 12:00:00 (CEST)Saarbrücken-Ensheim, Allemagne (10708): Direction du vent: 03.04.2020 12:00:00 - 09.04.2020 12:00:00 (CEST)Saarbrücken-Ensheim, Allemagne (10708): reduced air pressure: 03.04.2020 12:00:00 - 09.04.2020 12:00:00 (CEST)Saarbrücken-Ensheim, Allemagne (10708): visibility: 03.04.2020 12:00:00 - 09.04.2020 12:00:00 (CEST)Saarbrücken-Ensheim, Allemagne (10708): Ensoleillement: 03.04.2020 12:00:00 - 09.04.2020 12:00:00 (CEST)Saarbrücken-Ensheim, Allemagne (10708): Quantités de précipitations: 03.04.2020 12:00:00 - 09.04.2020 12:00:00 (CEST)
Date & Time tt [°C] td [°C] tt 5cm [°C] tt -5cm [°C] tt -20cm [°C] tt -100cm [°C] ff [km/h] ff [knt] fx [km/h] fx [knt] dd ppp [hPa] vv [km] sd [min] rr [mm]
09.04.2020 12:00:00 - - - - - - - - - - - - - - -
09.04.2020 11:00:00 15,1 6,2 19,7 15,1 12,6 9,3 4 2 8 4 - 1024,5 25 1 0,0
09.04.2020 10:00:00 13,2 5,5 15,8 12,9 12,4 9,3 0 0 5 3 N 1024,3 30 2 0,0
09.04.2020 09:00:00 11,6 4,3 12,4 11,2 12,5 9,3 5 3 8 4 W 1024,2 10 2 0,0
09.04.2020 08:00:00 9,8 3,6 8,4 10,2 12,7 9,3 4 2 8 4 S 1023,9 30 1 0,0
09.04.2020 07:00:00 8,8 4,0 6,0 10,2 13,0 9,3 2 1 5 3 - 1023,6 10 0 0,0
09.04.2020 06:00:00 9,1 3,2 6,1 10,6 13,3 9,2 2 1 5 3 - 1023,6 10 0 0,0
09.04.2020 05:00:00 9,2 3,1 6,2 10,8 13,6 9,2 2 1 8 4 NE 1023,5 40 0 0,0
09.04.2020 04:00:00 8,9 2,8 7,0 11,1 14,0 9,2 4 2 8 4 SE 1023,6 40 0 0,0
09.04.2020 03:00:00 10,7 2,1 5,0 11,6 14,5 9,2 4 2 8 4 W 1023,5 40 0 0,0
09.04.2020 02:00:00 11,4 2,0 6,0 12,3 15,0 9,2 5 3 5 3 ENE 1023,5 40 0 0,0
09.04.2020 01:00:00 11,9 2,3 6,4 13,1 15,5 9,2 2 1 5 3 ENE 1023,6 40 0 0,0
09.04.2020 00:00:00 12,7 2,6 7,4 14,1 16,1 9,1 4 2 9 5 ENE 1023,7 30 0 0,0
08.04.2020 23:00:00 13,9 2,4 8,2 15,3 16,7 9,1 6 3 14 7 NE 1023,4 30 0 0,0
08.04.2020 22:00:00 14,5 2,0 9,4 16,7 17,4 9,1 5 3 9 5 NE 1023,4 10 0 0,0
08.04.2020 21:00:00 15,5 1,6 9,8 18,7 17,9 9,1 2 1 7 4 N 1022,9 40 0 0,0
08.04.2020 20:00:00 18,8 2,0 13,7 21,3 18,2 9,1 4 2 5 3 SW 1022,2 10 39 0,0
08.04.2020 19:00:00 21,7 0,4 20,9 23,9 18,2 9,1 3 2 8 4 WSW 1021,8 45 60 0,0
08.04.2020 18:00:00 21,7 0,7 24,0 25,9 17,9 9,1 4 2 18 10 - 1021,9 10 60 0,0
08.04.2020 17:00:00 21,6 -0,6 24,9 26,9 17,3 9,1 4 2 16 9 SW 1022,2 40 60 0,0
08.04.2020 16:00:00 21,5 0,1 25,9 26,9 16,5 9,0 8 4 22 12 - 1022,9 10 60 0,0
08.04.2020 15:00:00 21,3 2,9 26,9 26,4 15,5 9,0 9 5 23 12 E 1023,2 40 60 0,0
08.04.2020 14:00:00 20,6 1,2 25,7 25,1 14,3 9,0 9 5 18 10 E 1023,9 10 60 0,0
08.04.2020 13:00:00 19,3 4,6 25,8 22,6 13,3 9,0 8 4 21 11 E 1024,7 10 60 0,0
08.04.2020 12:00:00 18,2 4,8 23,8 19,5 12,4 9,0 8 4 13 7 - 1025,4 10 60 0,0
08.04.2020 11:00:00 16,4 5,5 19,7 16,0 11,8 9,0 6 3 18 10 E 1026,0 35 60 0,0
08.04.2020 10:00:00 14,7 6,1 16,8 12,8 11,5 8,9 12 7 21 11 E 1026,2 35 60 0,0
08.04.2020 09:00:00 12,4 6,0 12,9 10,4 11,5 8,9 16 8 22 12 ENE 1026,4 30 60 0,0
08.04.2020 08:00:00 10,9 5,5 9,9 9,2 11,8 8,9 13 7 22 12 ENE 1026,4 10 30 0,0
08.04.2020 07:00:00 10,0 4,9 6,5 9,4 12,1 8,9 13 7 24 13 ENE 1026,4 10 0 0,0
08.04.2020 06:00:00 10,1 4,8 7,2 9,8 12,4 8,9 16 8 28 15 NE 1026,4 35 0 0,0
08.04.2020 05:00:00 11,3 5,3 8,7 10,3 12,8 8,8 16 9 30 16 NE 1026,6 35 0 0,0
08.04.2020 04:00:00 11,1 5,2 8,0 10,7 13,2 8,8 13 7 22 12 NE 1026,8 10 0 0,0
08.04.2020 03:00:00 10,9 4,9 7,3 11,2 13,6 8,8 15 8 21 11 NE 1027,1 35 0 0,0
08.04.2020 02:00:00 11,8 4,7 7,5 11,9 14,0 8,8 11 6 22 12 NE 1027,4 10 0 0,0
08.04.2020 01:00:00 12,5 4,4 7,8 12,8 14,5 8,8 14 7 24 13 NE 1027,3 35 0 0,0
08.04.2020 00:00:00 13,7 4,5 9,5 13,8 14,9 8,8 15 8 22 12 NE 1027,2 10 0 0,0
07.04.2020 23:00:00 15,5 3,9 13,0 14,7 15,4 8,8 16 9 26 14 NE 1026,8 10 0 0,0
07.04.2020 22:00:00 16,0 3,3 13,5 15,7 16,0 8,8 16 9 23 12 NE 1026,9 10 0 0,0
07.04.2020 21:00:00 15,9 2,6 12,4 17,2 16,5 8,8 11 6 18 10 NE 1026,7 10 0 0,0
07.04.2020 20:00:00 17,4 1,9 13,7 19,6 16,8 8,7 13 7 22 12 E 1026,3 10 59 0,0
07.04.2020 19:00:00 21,1 0,0 20,0 21,8 16,8 8,7 15 8 31 17 E 1025,7 10 60 0,0
07.04.2020 18:00:00 21,8 -0,1 22,4 23,5 16,5 8,7 21 11 30 16 E 1025,7 10 60 0,0
07.04.2020 17:00:00 22,2 0,1 24,5 24,7 16,0 8,7 15 8 31 17 E 1026,1 45 60 0,0
07.04.2020 16:00:00 22,4 1,1 25,2 25,0 15,1 8,7 16 9 33 18 E 1026,5 10 60 0,0
07.04.2020 15:00:00 21,8 1,1 26,0 24,7 14,1 8,7 13 7 28 15 ENE 1027,1 40 60 0,0
07.04.2020 14:00:00 20,9 3,2 25,3 23,0 13,1 8,7 13 7 28 15 E 1027,8 10 60 0,0
07.04.2020 13:00:00 20,4 3,5 24,3 20,7 12,1 8,7 15 8 25 13 E 1028,4 10 60 0,0
07.04.2020 12:00:00 18,8 4,3 22,7 18,0 11,2 8,6 10 5 22 12 NE 1029,1 40 60 0,0
07.04.2020 11:00:00 16,9 6,0 19,8 14,7 10,6 8,6 11 6 25 14 NE 1029,3 10 60 0,0
07.04.2020 10:00:00 14,9 5,0 16,8 11,7 10,3 8,6 16 9 24 13 ENE 1029,4 30 60 0,0
07.04.2020 09:00:00 12,3 3,7 12,8 9,1 10,3 8,6 16 9 24 13 NE 1029,7 40 60 0,0
07.04.2020 08:00:00 10,1 1,7 8,7 7,8 10,6 8,6 13 7 22 12 ENE 1029,6 40 35 0,0
07.04.2020 07:00:00 7,3 1,2 3,4 8,1 10,8 8,6 11 6 17 9 ENE 1029,3 40 0 0,0
07.04.2020 06:00:00 8,9 1,7 3,9 8,8 11,1 8,6 5 3 8 4 ENE 1029,0 10 0 0,0
07.04.2020 05:00:00 9,0 1,5 7,3 9,0 11,3 8,5 2 1 8 4 NNE 1028,7 40 0 0,0
07.04.2020 04:00:00 10,7 0,6 5,8 8,7 11,7 8,5 5 3 9 5 E 1027,8 40 0 0,0
07.04.2020 03:00:00 6,7 1,1 2,8 9,2 12,2 8,5 5 3 8 4 E 1028,3 10 0 0,0
07.04.2020 02:00:00 8,6 0,6 3,9 9,9 12,6 8,5 2 1 9 5 SSE 1027,8 40 0 0,0
07.04.2020 01:00:00 10,9 0,1 4,0 10,7 13,1 8,5 2 1 8 4 - 1027,0 10 0 0,0
07.04.2020 00:00:00 10,9 0,1 5,6 11,6 13,7 8,5 2 1 4 2 - 1026,4 10 0 0,0
06.04.2020 23:00:00 11,7 0,3 5,2 12,7 14,2 8,5 2 1 4 2 - 1026,1 10 0 0,0
06.04.2020 22:00:00 12,1 0,0 7,2 14,1 14,8 8,5 2 1 11 6 NE 1025,7 40 0 0,0
06.04.2020 21:00:00 15,4 -0,1 8,2 16,0 15,3 8,5 11 6 15 8 WSW 1024,3 10 5 0,0
06.04.2020 20:00:00 17,8 -0,4 14,1 18,4 15,6 8,5 12 7 24 13 WSW 1023,1 40 60 0,0
06.04.2020 19:00:00 19,4 -1,3 18,4 20,7 15,6 8,4 24 13 35 19 WSW 1022,5 10 60 0,0
06.04.2020 18:00:00 20,2 -1,7 21,6 22,5 15,3 8,4 26 14 37 20 WSW 1022,3 10 60 0,0
06.04.2020 17:00:00 20,5 -1,3 22,8 23,5 14,7 8,4 28 15 54 29 SW 1022,3 10 60 0,0
06.04.2020 16:00:00 20,2 -1,3 23,5 23,8 13,9 8,4 28 15 41 22 SSW 1022,1 40 60 0,0
06.04.2020 15:00:00 19,8 0,4 24,2 23,3 12,9 8,4 22 12 43 23 SSW 1022,3 35 60 0,0
06.04.2020 14:00:00 19,2 2,1 23,5 22,0 11,8 8,4 24 13 41 22 SSW 1022,2 30 60 0,0
06.04.2020 13:00:00 17,5 1,5 22,4 19,6 10,8 8,4 24 13 41 22 SSW 1022,7 30 60 0,0
06.04.2020 12:00:00 16,7 2,4 21,4 16,7 9,9 8,4 18 10 34 18 SW 1022,7 10 60 0,0
06.04.2020 11:00:00 14,4 2,0 18,4 13,5 9,2 8,4 18 10 29 16 SW 1022,7 30 60 0,0
06.04.2020 10:00:00 12,7 1,6 15,6 10,2 8,9 8,4 17 9 29 16 SSW 1022,7 30 60 0,0
06.04.2020 09:00:00 10,4 0,8 11,6 7,4 8,9 8,3 16 9 29 15 SSW 1022,5 10 60 0,0
06.04.2020 08:00:00 9,2 0,2 7,9 6,0 9,1 8,3 13 7 21 11 SSW 1022,1 10 39 0,0
06.04.2020 07:00:00 8,6 -0,1 4,3 6,1 9,4 8,3 13 7 24 13 SSW 1021,4 10 0 0,0
06.04.2020 06:00:00 8,6 0,3 3,7 6,2 9,8 8,3 8 4 15 8 SSW 1020,6 10 0 0,0
06.04.2020 05:00:00 7,4 0,3 0,5 6,7 10,2 8,3 11 6 13 7 S 1020,5 35 0 0,0
06.04.2020 04:00:00 7,4 -0,5 1,7 7,3 10,6 8,3 4 2 9 5 - 1020,3 10 0 0,0
06.04.2020 03:00:00 7,6 -0,1 2,3 7,9 11,0 8,3 5 3 11 6 ENE 1020,2 10 0 0,0
06.04.2020 02:00:00 8,2 0,3 2,8 8,6 11,5 8,3 9 5 18 10 ENE 1019,8 10 0 0,0
06.04.2020 01:00:00 8,0 -0,1 4,1 9,4 12,0 8,3 13 7 18 10 ENE 1019,7 10 0 0,0
06.04.2020 00:00:00 9,4 0,6 3,7 10,4 12,5 8,3 10 5 23 13 ENE 1019,4 40 0 0,0
05.04.2020 23:00:00 10,0 0,2 5,8 11,5 13,1 8,3 16 9 26 14 ENE 1019,4 10 0 0,0
05.04.2020 22:00:00 9,6 -0,1 4,7 12,9 13,6 8,3 15 8 21 11 ENE 1019,6 10 0 0,0
05.04.2020 21:00:00 12,6 -0,5 8,5 14,9 14,1 8,3 13 7 22 12 E 1019,1 10 7 0,0
05.04.2020 20:00:00 15,7 0,5 13,0 17,2 14,3 8,3 16 9 27 14 E 1018,5 10 60 0,0
05.04.2020 19:00:00 18,2 -1,3 17,4 19,4 14,3 8,3 15 8 28 15 ESE 1018,3 50 60 0,0
05.04.2020 18:00:00 18,9 -0,7 19,8 21,3 13,9 8,3 16 9 28 15 E 1018,3 50 60 0,0
05.04.2020 17:00:00 18,9 -1,8 22,0 22,3 13,3 8,2 15 8 27 14 SE 1019,0 10 60 0,0
05.04.2020 16:00:00 18,2 -1,8 21,9 22,3 12,4 8,2 12 6 29 16 ESE 1019,8 50 60 0,0
05.04.2020 15:00:00 18,1 -0,5 22,7 21,9 11,3 8,2 11 6 24 13 ESE 1020,3 10 60 0,0
05.04.2020 14:00:00 17,6 -0,1 22,8 20,1 10,1 8,2 13 7 22 12 ENE 1021,1 10 60 0,0
05.04.2020 13:00:00 16,3 0,9 21,5 17,1 9,1 8,2 13 7 26 14 ESE 1021,8 10 60 0,0
05.04.2020 12:00:00 14,6 0,4 18,4 14,5 8,3 8,2 15 8 28 15 ESE 1022,6 10 60 0,0
05.04.2020 11:00:00 13,1 1,3 15,2 11,4 7,8 8,2 18 10 36 19 E 1022,9 10 60 0,0
05.04.2020 10:00:00 9,9 0,2 11,6 8,3 7,6 8,2 17 9 28 15 E 1023,6 50 60 0,0
05.04.2020 09:00:00 8,1 0,0 8,9 5,7 7,6 8,2 13 7 25 14 ENE 1023,7 10 60 0,0
05.04.2020 08:00:00 5,9 -0,8 4,7 4,4 7,8 8,2 13 7 22 12 ENE 1023,7 10 37 0,0
05.04.2020 07:00:00 3,4 -1,5 0,5 4,5 8,1 8,2 11 6 20 11 E 1023,8 30 0 0,0
05.04.2020 06:00:00 4,0 -1,5 0,5 4,9 8,4 8,2 11 6 21 11 NE 1023,6 30 0 0,0
05.04.2020 05:00:00 5,2 -1,0 2,2 5,3 8,8 8,2 10 5 20 11 ENE 1023,3 35 0 0,0
05.04.2020 04:00:00 4,5 -1,2 1,0 5,8 9,1 8,2 11 6 22 12 ENE 1023,5 10 0 0,0
05.04.2020 03:00:00 5,1 -1,0 1,5 6,5 9,5 8,2 10 5 23 12 ENE 1023,6 40 0 0,0
05.04.2020 02:00:00 5,7 -1,0 3,1 7,1 9,9 8,2 13 7 22 12 ENE 1023,9 40 0 0,0
05.04.2020 01:00:00 6,9 -0,9 4,2 7,7 10,3 8,2 16 8 21 11 ENE 1023,7 50 0 0,0
05.04.2020 00:00:00 7,0 -1,5 3,5 8,5 10,8 8,2 13 7 26 14 NE 1023,6 10 0 0,0
04.04.2020 23:00:00 8,7 -1,2 6,4 9,2 11,3 8,2 16 9 22 12 ENE 1023,4 50 0 0,0
04.04.2020 22:00:00 6,9 -1,6 2,6 10,4 11,8 8,2 13 7 20 11 ENE 1023,7 50 0 0,0
04.04.2020 21:00:00 8,6 -1,0 4,1 12,2 12,2 8,2 9 5 15 8 NE 1023,5 10 6 0,0
04.04.2020 20:00:00 12,1 -0,6 9,9 14,5 12,4 8,2 10 5 21 11 NE 1022,5 50 60 0,0
04.04.2020 19:00:00 14,0 -1,7 13,6 16,7 12,4 8,2 13 7 28 15 E 1021,8 10 60 0,0
04.04.2020 18:00:00 14,6 -0,8 15,9 18,7 12,1 8,2 16 9 28 15 ENE 1021,6 50 60 0,0
04.04.2020 17:00:00 13,9 -1,4 18,0 20,2 11,4 8,2 13 7 25 13 E 1022,1 10 60 0,0
04.04.2020 16:00:00 13,4 -1,9 17,8 20,5 10,6 8,2 12 7 25 13 E 1022,9 50 60 0,0
04.04.2020 15:00:00 12,5 -1,8 17,7 19,7 9,6 8,2 11 6 25 13 E 1023,2 50 60 0,0
04.04.2020 14:00:00 12,2 -1,1 17,1 18,5 8,5 8,2 12 7 27 14 E 1023,7 50 60 0,0
04.04.2020 13:00:00 10,7 -1,7 16,5 16,2 7,5 8,2 9 5 21 11 - 1024,4 10 60 0,0
04.04.2020 12:00:00 10,0 -0,6 15,0 12,8 6,6 8,2 9 5 21 11 NE 1024,7 10 60 0,0
04.04.2020 11:00:00 8,3 -1,0 11,3 9,1 6,1 8,1 15 8 22 12 E 1025,1 10 60 0,0
04.04.2020 10:00:00 6,3 -0,8 8,7 5,8 5,8 8,1 11 6 23 13 ENE 1024,9 10 60 0,0
04.04.2020 09:00:00 4,9 -1,0 5,6 3,2 5,8 8,1 13 7 22 12 ENE 1024,6 10 60 0,0
04.04.2020 08:00:00 2,7 -2,3 1,0 1,7 6,0 8,1 11 6 18 10 ENE 1024,5 10 34 0,0
04.04.2020 07:00:00 0,7 -2,2 -4,0 1,8 6,3 8,1 5 3 9 5 ENE 1024,3 10 0 0,0
04.04.2020 06:00:00 0,0 -2,8 -4,3 2,2 6,6 8,1 2 1 9 5 - 1024,2 10 0 0,0
04.04.2020 05:00:00 0,8 -2,5 -4,1 2,6 7,0 8,1 4 2 8 4 NE 1023,6 10 0 0,0
04.04.2020 04:00:00 1,1 -2,6 -3,4 3,1 7,3 8,1 4 2 5 3 NE 1023,2 10 0 0,0
04.04.2020 03:00:00 1,7 -2,1 -2,1 3,7 7,7 8,1 2 1 4 2 - 1022,9 10 0 0,0
04.04.2020 02:00:00 2,1 -2,4 -1,6 4,3 8,0 8,1 2 1 4 2 ENE 1022,8 10 0 0,0
04.04.2020 01:00:00 2,2 -2,2 -2,3 5,0 8,4 8,1 2 1 5 3 - 1022,8 10 0 0,0
04.04.2020 00:00:00 4,2 -1,4 -0,9 5,8 8,8 8,1 2 1 16 9 SSE 1022,1 40 0 0,0
03.04.2020 23:00:00 6,6 -0,8 4,2 6,6 9,1 8,1 11 6 18 10 N 1021,4 10 0 0,0
03.04.2020 22:00:00 4,9 0,4 0,7 7,4 9,5 8,1 4 2 5 3 NW 1021,1 10 0 0,0
03.04.2020 21:00:00 6,7 0,5 1,7 8,8 9,7 8,1 5 3 15 8 W 1020,1 40 0 0,0
03.04.2020 20:00:00 8,9 0,3 7,7 10,1 9,8 8,1 9 5 18 10 W 1019,4 10 0 0,0
03.04.2020 19:00:00 9,5 0,4 9,5 10,9 9,9 8,1 13 7 23 13 W 1018,9 10 0 0,0
03.04.2020 18:00:00 10,0 0,9 11,0 11,3 10,0 8,1 13 7 23 12 WNW 1018,3 10 0 0,0
03.04.2020 17:00:00 9,8 0,5 10,0 11,8 9,9 8,1 13 7 27 14 NW 1018,3 10 0 0,0
03.04.2020 16:00:00 10,0 -0,1 10,7 13,0 9,7 8,1 12 7 24 13 W 1018,1 30 1 0,0
03.04.2020 15:00:00 9,9 2,7 11,9 14,2 9,2 8,1 16 9 24 13 SW 1017,8 10 1 0,0
03.04.2020 14:00:00 9,7 2,4 13,8 16,0 8,3 8,1 14 8 25 13 SW 1018,0 25 45 0,0
03.04.2020 13:00:00 9,6 2,8 16,8 13,5 7,6 8,0 14 7 27 14 SW 1018,1 25 38 0,0
03.04.2020 12:00:00 7,8 2,4 11,2 9,9 7,1 8,0 11 6 21 11 WSW 1018,3 10 0 0,0

tt = Température de l'air
td = dewpoint
tt 5cm = Température de l'air 5cm
tt -5cm = Température de l'air -5cm
tt -20cm = Température de l'air -20cm
tt -100cm = Température de l'air -100cm
ff = Vitesse du vent
fx = gusts
dd = Direction du vent
ppp = reduced air pressure
vv = visibility
sd = Ensoleillement
rr = Quantités de précipitations

stations d'obs. à proximité